N960 KDEN-KPUB

Flight info

Callsign N960
Flight time 0h 22m
Altitude 25000
Route PIKESE PUB
Aircraft C25C/M-BGS/L

Departure

Time 2026-04-25 23:30
Airport Denver International Airport (KDEN)

Arrival

Time 2026-04-25 23:52
Airport Pueblo Memorial Airport (KPUB)
Time Latitude Longitude Altitude Speed Heading
2026-04-25 23:08 39.83876 -104.66407 5418 ft 0 kts 114°
2026-04-25 23:19 39.83902 -104.66383 5418 ft 9 kts
2026-04-25 23:19 39.83920 -104.66380 5411 ft 0 kts
2026-04-25 23:19 39.83925 -104.66380 5410 ft 3 kts
2026-04-25 23:19 39.83959 -104.66376 5417 ft 0 kts
2026-04-25 23:20 39.83986 -104.66365 5416 ft 11 kts 32°
2026-04-25 23:20 39.84075 -104.66259 5413 ft 25 kts
2026-04-25 23:20 39.84273 -104.66254 5415 ft 28 kts
2026-04-25 23:20 39.84464 -104.66253 5411 ft 27 kts
2026-04-25 23:21 39.84643 -104.66250 5408 ft 25 kts
2026-04-25 23:21 39.84813 -104.66247 5402 ft 22 kts
2026-04-25 23:21 39.84960 -104.66246 5399 ft 20 kts
2026-04-25 23:21 39.85066 -104.66245 5397 ft 7 kts 360°
2026-04-25 23:22 39.85070 -104.66245 5397 ft 0 kts 360°
2026-04-25 23:22 39.85141 -104.66246 5392 ft 18 kts
2026-04-25 23:22 39.85283 -104.66241 5394 ft 23 kts
2026-04-25 23:23 39.85652 -104.66236 5391 ft 30 kts
2026-04-25 23:23 39.85875 -104.66233 5387 ft 34 kts
2026-04-25 23:23 39.86037 -104.66231 5383 ft 12 kts
2026-04-25 23:23 39.86144 -104.66231 5379 ft 19 kts 359°
2026-04-25 23:24 39.86294 -104.66232 5376 ft 25 kts 360°
2026-04-25 23:24 39.86474 -104.66230 5374 ft 25 kts
2026-04-25 23:24 39.86591 -104.66225 5371 ft 15 kts
2026-04-25 23:24 39.86715 -104.66223 5369 ft 21 kts
2026-04-25 23:25 39.86878 -104.66220 5364 ft 26 kts
2026-04-25 23:25 39.87083 -104.66220 5360 ft 32 kts
2026-04-25 23:25 39.87321 -104.66215 5357 ft 35 kts
2026-04-25 23:25 39.87545 -104.66212 5356 ft 28 kts
2026-04-25 23:26 39.87613 -104.66212 5355 ft 0 kts 360°
2026-04-25 23:26 39.87616 -104.66212 5355 ft 2 kts
2026-04-25 23:26 39.87622 -104.66212 5355 ft 0 kts 360°
2026-04-25 23:28 39.87697 -104.66212 5354 ft 21 kts
2026-04-25 23:29 39.87755 -104.66052 5350 ft 36 kts 90°
2026-04-25 23:29 39.87752 -104.65438 5347 ft 96 kts 90°
2026-04-25 23:29 39.87742 -104.64382 5371 ft 135 kts 91°
2026-04-25 23:29 39.87702 -104.63156 5786 ft 140 kts 93°
2026-04-25 23:30 39.87435 -104.61821 6335 ft 164 kts 114°
2026-04-25 23:30 39.86973 -104.60485 7189 ft 159 kts 111°
2026-04-25 23:30 39.86566 -104.59110 7807 ft 173 kts 112°
2026-04-25 23:30 39.86108 -104.57599 8523 ft 185 kts 121°
2026-04-25 23:31 39.85224 -104.56336 9163 ft 196 kts 152°
2026-04-25 23:31 39.83895 -104.56007 10025 ft 197 kts 185°
2026-04-25 23:31 39.82455 -104.56048 10515 ft 221 kts 181°
2026-04-25 23:31 39.80846 -104.55969 11047 ft 237 kts 179°
2026-04-25 23:32 39.79111 -104.55824 11319 ft 267 kts 179°
2026-04-25 23:32 39.77132 -104.55643 11403 ft 300 kts 178°
2026-04-25 23:32 39.74962 -104.55437 11502 ft 327 kts 178°
2026-04-25 23:32 39.72600 -104.55261 11483 ft 352 kts 178°
2026-04-25 23:33 39.70087 -104.55044 11482 ft 365 kts 178°
2026-04-25 23:33 39.67647 -104.54819 11478 ft 339 kts 178°
2026-04-25 23:33 39.65359 -104.54611 11447 ft 322 kts 178°
2026-04-25 23:33 39.63147 -104.54424 11322 ft 315 kts 178°
2026-04-25 23:34 39.60981 -104.54237 11193 ft 309 kts 178°
2026-04-25 23:34 39.58842 -104.54050 11099 ft 307 kts 178°
2026-04-25 23:34 39.56725 -104.53861 11184 ft 298 kts 178°
2026-04-25 23:34 39.54656 -104.53682 11922 ft 304 kts 179°
2026-04-25 23:35 39.52493 -104.53502 12799 ft 319 kts 180°
2026-04-25 23:35 39.50230 -104.53303 13705 ft 333 kts 180°
2026-04-25 23:35 39.47880 -104.53097 14536 ft 344 kts 180°
2026-04-25 23:35 39.45457 -104.52884 15388 ft 354 kts 180°
2026-04-25 23:36 39.42971 -104.52667 16266 ft 362 kts 180°
2026-04-25 23:36 39.40464 -104.52448 17167 ft 359 kts 180°
2026-04-25 23:36 39.37976 -104.52229 18083 ft 360 kts 181°
2026-04-25 23:36 39.35454 -104.52015 18899 ft 366 kts 181°
2026-04-25 23:37 39.32932 -104.51798 19719 ft 370 kts 181°
2026-04-25 23:37 39.30353 -104.51569 20570 ft 373 kts 182°
2026-04-25 23:37 39.27711 -104.51347 20924 ft 387 kts 182°
2026-04-25 23:37 39.25052 -104.51109 20936 ft 378 kts 182°
2026-04-25 23:38 39.22433 -104.50882 20937 ft 377 kts 182°
2026-04-25 23:38 39.19808 -104.50656 20944 ft 379 kts 182°
2026-04-25 23:38 39.17168 -104.50433 20954 ft 382 kts 182°
2026-04-25 23:38 39.14505 -104.50201 20966 ft 385 kts 182°
2026-04-25 23:39 39.11826 -104.49968 20978 ft 387 kts 181°
2026-04-25 23:39 39.09132 -104.49737 20988 ft 389 kts 182°
2026-04-25 23:39 39.06427 -104.49502 21000 ft 390 kts 181°
2026-04-25 23:39 39.03711 -104.49272 21011 ft 391 kts 181°
2026-04-25 23:40 39.00988 -104.49034 21021 ft 392 kts 181°
2026-04-25 23:40 38.98265 -104.48802 21023 ft 393 kts 181°
2026-04-25 23:40 38.95568 -104.48569 21021 ft 394 kts 181°
2026-04-25 23:40 38.92834 -104.48336 21024 ft 394 kts 181°
2026-04-25 23:41 38.90096 -104.48100 21021 ft 394 kts 181°
2026-04-25 23:41 38.87357 -104.47866 21015 ft 395 kts 181°
2026-04-25 23:41 38.84612 -104.47631 21006 ft 395 kts 181°
2026-04-25 23:41 38.81868 -104.47396 20991 ft 395 kts 181°
2026-04-25 23:42 38.79121 -104.47163 20981 ft 395 kts 181°
2026-04-25 23:42 38.76376 -104.46925 20947 ft 396 kts 181°
2026-04-25 23:42 38.73629 -104.46694 20942 ft 396 kts 181°
2026-04-25 23:42 38.70882 -104.46457 20939 ft 396 kts 181°
2026-04-25 23:43 38.68130 -104.46225 20928 ft 396 kts 181°
2026-04-25 23:43 38.65376 -104.45988 20916 ft 396 kts 182°
2026-04-25 23:43 38.62627 -104.45757 20912 ft 396 kts 181°
2026-04-25 23:43 38.59873 -104.45520 20906 ft 397 kts 181°
2026-04-25 23:44 38.57115 -104.45288 20902 ft 397 kts 181°
2026-04-25 23:44 38.54362 -104.45053 20887 ft 396 kts 182°
2026-04-25 23:44 38.51612 -104.44820 20892 ft 396 kts 181°
2026-04-25 23:44 38.48857 -104.44588 20894 ft 396 kts 182°
2026-04-25 23:45 38.46135 -104.44352 20905 ft 378 kts 182°
2026-04-25 23:45 38.43643 -104.44125 20905 ft 342 kts 182°
2026-04-25 23:45 38.41332 -104.43931 20310 ft 329 kts 183°
2026-04-25 23:45 38.39138 -104.43757 19550 ft 303 kts 182°
2026-04-25 23:46 38.37110 -104.43583 18810 ft 283 kts 182°
2026-04-25 23:46 38.35225 -104.43426 18099 ft 268 kts 182°
2026-04-25 23:46 38.33396 -104.43275 17049 ft 263 kts 182°
2026-04-25 23:46 38.31560 -104.43125 15963 ft 263 kts 181°
2026-04-25 23:47 38.29720 -104.42968 14961 ft 260 kts 180°
2026-04-25 23:47 38.27963 -104.42520 14019 ft 261 kts 170°
2026-04-25 23:47 38.26221 -104.41899 13023 ft 258 kts 170°
2026-04-25 23:47 38.24499 -104.41821 12026 ft 244 kts 200°
2026-04-25 23:48 38.23187 -104.42993 11085 ft 225 kts 233°
2026-04-25 23:48 38.22746 -104.44854 10154 ft 222 kts 263°
2026-04-25 23:48 38.22794 -104.46807 9193 ft 221 kts 268°
2026-04-25 23:48 38.22909 -104.48731 8232 ft 206 kts 271°
2026-04-25 23:49 38.23023 -104.50466 7285 ft 192 kts 271°
2026-04-25 23:49 38.23096 -104.52141 6492 ft 184 kts 271°
2026-04-25 23:49 38.23171 -104.53639 6311 ft 155 kts 280°
2026-04-25 23:49 38.23619 -104.54796 6083 ft 144 kts 320°
2026-04-25 23:50 38.24445 -104.55376 5851 ft 131 kts 354°
2026-04-25 23:50 38.25313 -104.55573 5664 ft 124 kts 359°
2026-04-25 23:50 38.26186 -104.55662 5421 ft 128 kts
2026-04-25 23:50 38.27075 -104.55761 5211 ft 130 kts
2026-04-25 23:51 38.27864 -104.55430 5032 ft 108 kts 58°
2026-04-25 23:51 38.28082 -104.54589 4877 ft 103 kts 76°
2026-04-25 23:51 38.28314 -104.53620 4947 ft 130 kts 75°
2026-04-25 23:51 38.28628 -104.52555 4901 ft 114 kts 83°
2026-04-25 23:52 38.28704 -104.51626 4736 ft 102 kts 90°
2026-04-25 23:52 38.28710 -104.50774 4670 ft 90 kts 88°
2026-04-25 23:52 38.28732 -104.50219 4669 ft 49 kts 88°
2026-04-25 23:52 38.28711 -104.49861 4669 ft 31 kts 115°
2026-04-25 23:53 38.28586 -104.49708 4667 ft 22 kts 176°
2026-04-25 23:53 38.28450 -104.49689 4667 ft 16 kts 137°
2026-04-25 23:53 38.28471 -104.49661 4667 ft 5 kts 332°
2026-04-25 23:53 38.28504 -104.49679 4668 ft 8 kts 337°
2026-04-25 23:54 38.28627 -104.49720 4667 ft 21 kts 335°
2026-04-25 23:54 38.28706 -104.49857 4669 ft 18 kts 308°
2026-04-25 23:54 38.28821 -104.49897 4670 ft 17 kts 357°
2026-04-25 23:54 38.28914 -104.49911 4677 ft 10 kts 319°
2026-04-25 23:55 38.28922 -104.49986 4678 ft 9 kts 270°
2026-04-25 23:55 38.28921 -104.50071 4678 ft 10 kts 270°
2026-04-25 23:55 38.28963 -104.50120 4680 ft 5 kts 356°